{"data":{"norad_id":55652,"epoch":"2026-05-25T00:00:47.539008Z","epoch_age_seconds":74212,"freshness":"FRESH","line1":"1 55652U 23021AA  26145.00055022  .00000574  00000+0  55887-4 0  9995","line2":"2 55652  69.9994 351.9844 0002978 267.7618  92.3200 14.98325572180223","mean_motion":14.98325572,"eccentricity":0.0002978,"inclination_deg":69.9994,"raan_deg":351.9844,"arg_perigee_deg":267.7618,"mean_anomaly_deg":92.32,"bstar":5.5887e-5,"rev_number":18022,"period_min":96.107283150608,"perigee_km":569.9998126821,"apogee_km":574.13935572365,"semimajor_km":6950.2065842029,"source":"CELESTRAK","updated_at":"2026-05-25T13:38:17.870682Z"}}